Capitol Logistics 464


KTPA
Tampa International Airport
Tampa, Florida, US
KRIV
March Air Reserve Base
Riverside, California, US

Activity Log

Date Flight Route Aircraft Duration
07/02/2019 CPX464 ENDED8 LACEN PATOY Q116 JAWJA CABLO MEI ELD SPS J72 TXO DRK J78 TRM ARKOE1 B738 4h 36m

Route Details

Aircraft Information
Primary: Boeing 737-800BCF
Backup: Not Available
Route Data
Distance: 1817nm
Sched. Duration: 5h 15m
Avg. Duration: 4h 36m (-79m)
Times Flown: 1
Recm'd Route: ENDED8 LACEN PATOY Q116 JAWJA CABLO MEI ELD SPS J72 TXO DRK J78 TRM ARKOE1
Planned Altitude: 34,000ft
Origin Wx: KTPA 251153Z 05004KT 10SM FEW035 SCT120 SCT240 24/21 A2990 RMK AO2 SLP123 TCU DSNT S T02390206 10261 20239 53015
Dest. Wx: KRIV 251158Z 31004KT 10SM VCSH SCT010 BKN020 15/13 A2993 RMK AO2A SLP127 60000 T01510129 10157 20151 58006
Notes:

Financial History
Total Freight: 43,296lbs
Average Load: 43,296lbs/flt
Fuel Used: 25,378lbs
Avg. Fuel Used: 25,378lbs/flt
Fuel Expense: $25,632
Avg. Fuel Expense: $25,632
Avg. Fuel Cost: $1.01/lbs
Total Gross Income: $56,718
Pilot Pay: $229
Total Expenses: $6,178
Total Revenue: $23,809
Average Revenue: $56,717.76